Terug naar catalogus

COSMOS 1317 DEB

LostHEO
NORAD 35509·DEBRIS·🇷🇺 Russia

Gelanceerd Oct 31, 1981 vanaf Plesetsk Cosmodrome

Loading…

Volgende Passages (komende 24 uur)

TLE

VerouderdSource: Space-Track

Epoch: Feb 19, 2011, 15:10 UTC

1 35509U 81108J   11050.63253324 -.00000147  00000-0  10000-3 0  9992
2 35509  70.1526 347.0114 5382548 164.8594 221.8831  1.99648545 17720

Volg COSMOS 1317 DEB in realtime met AllMySat

Download on the App Store